Shaw AFB, SC

9:03 AM EST on January 16, 2017 (GMT -0500)
Shaw Air Force Base

Weather History for KSSC - April, 2013

Change the Weather History Date:

Friday, April 12, 2013

  Actual Average Record
Temperature  
Mean Temperature 73 °F -  
Max Temperature 82 °F 72 °F 87 °F (2001)
Min Temperature 64 °F 49 °F 40 °F (2012)
Cooling Degree Days 8    
Growing Degree Days 23 (Base 50)    
Moisture  
Dew Point 64 °F    
Average Humidity 77    
Maximum Humidity 100    
Minimum Humidity 31    
Precipitation  
Precipitation 0.28 in - - ()
Sea Level Pressure  
Sea Level Pressure 29.75 in    
Wind  
Wind Speed 14 mph (SSW)    
Max Wind Speed 24 mph    
Max Gust Speed 34 mph    
Visibility 9 miles    
Events Rain , Thunderstorm    
Averages and records for this station are not official NWS values.
T = Trace of Precipitation, MM = Missing Value Source: NWS Daily Summary

Daily Weather History Graph

Daily Weather History Graph

Search for Another Location

Airport or City:

Trip Planner

Search our weather history database for the weather conditions in past years. The results will help you decide how hot, cold, wet, or windy it might be!

Date:

Astronomy

Apr. 12, 2013 Rise Set
Actual Time 6:54 AM EDT 7:51 PM EDT
Civil Twilight 6:28 AM EDT 8:16 PM EDT
Nautical Twilight 5:58 AM EDT 8:47 PM EDT
Astronomical Twilight 5:27 AM EDT 9:18 PM EDT
Moon 8:09 AM EDT (4/12) 10:13 PM EDT (4/12)
Length of Visible Light 13h 47m
Length of Day
12h 56m
Waxing Crescent, 5% of the Moon is Illuminated
Apr 12
Waxing Crescent
Apr 18
First Quarter
Apr 25
Full
May 2
Last Quarter
May 9
New

Hourly Weather History & Observations

Time (EDT) Temp. Heat Index Dew Point Humidity Pressure Visibility Wind Dir Wind Speed Gust Speed Precip Events Conditions
12:58 AM 72.3 °F - 63.3 °F 73% 29.82 in 10.0 mi South 17.3 mph 24.2 mph N/A   Overcast
1:58 AM 72.7 °F - 63.0 °F 71% 29.79 in 10.0 mi South 17.3 mph 26.5 mph N/A   Overcast
2:08 AM 73.4 °F - 62.6 °F 69% 29.78 in 10.0 mi South 13.8 mph 27.6 mph N/A   Overcast
2:13 AM 73.4 °F - 62.6 °F 69% 29.78 in 10.0 mi South 16.1 mph 21.9 mph N/A   Overcast
2:18 AM 73.4 °F - 62.6 °F 69% 29.78 in 10.0 mi South 13.8 mph 21.9 mph N/A   Overcast
2:23 AM 73.4 °F - 62.6 °F 69% 29.78 in 10.0 mi South 17.3 mph 23.0 mph N/A   Overcast
2:49 AM 73.4 °F - 62.6 °F 69% 29.77 in 10.0 mi South 18.4 mph 26.5 mph N/A Rain , Thunderstorm Light Rain
2:53 AM 71.6 °F - 64.4 °F 78% 29.78 in 10.0 mi South 20.7 mph 31.1 mph N/A Rain , Thunderstorm Light Thunderstorms and Rain
2:58 AM 72.3 °F - 64.2 °F 76% 29.80 in 9.0 mi South 18.4 mph 31.1 mph 0.01 in Rain , Thunderstorm Light Thunderstorms and Rain
3:03 AM 71.6 °F - 66.2 °F 83% 29.78 in 4.0 mi South 16.1 mph 31.1 mph N/A Rain , Thunderstorm Heavy Thunderstorms and Rain
3:13 AM 69.8 °F - 66.2 °F 88% 29.78 in 7.0 mi South 12.7 mph 23.0 mph N/A Rain , Thunderstorm Thunderstorms and Rain
3:16 AM 69.8 °F - 66.2 °F 88% 29.78 in 8.0 mi South 15.0 mph 21.9 mph N/A Rain , Thunderstorm Light Rain
3:21 AM 69.8 °F - 66.2 °F 88% 29.77 in 4.0 mi South 15.0 mph 20.7 mph N/A Rain , Thunderstorm Heavy Rain
3:26 AM 69.8 °F - 66.2 °F 88% 29.76 in 4.0 mi South 10.4 mph 20.7 mph N/A Rain , Thunderstorm Rain
3:31 AM 69.8 °F - 68.0 °F 94% 29.75 in 6.0 mi South 9.2 mph 20.7 mph N/A Rain Light Rain
3:36 AM 69.8 °F - 68.0 °F 94% 29.75 in 10.0 mi South 9.2 mph - N/A Rain Light Rain
3:39 AM 69.8 °F - 68.0 °F 94% 29.75 in 10.0 mi South 10.4 mph - N/A   Mostly Cloudy
3:58 AM 69.3 °F - 67.3 °F 93% 29.73 in 10.0 mi SSE 10.4 mph - 0.26 in   Mostly Cloudy
4:23 AM 68.0 °F - 66.2 °F 94% 29.74 in 10.0 mi South 6.9 mph - N/A   Mostly Cloudy
4:28 AM 68.0 °F - 66.2 °F 94% 29.74 in 10.0 mi South 8.1 mph - N/A   Mostly Cloudy
4:58 AM 68.7 °F - 67.6 °F 96% 29.73 in 10.0 mi South 8.1 mph - N/A   Mostly Cloudy
5:13 AM 68.0 °F - 68.0 °F 100% 29.73 in 10.0 mi South 6.9 mph - N/A   Overcast
5:23 AM 69.8 °F - 68.0 °F 94% 29.74 in 10.0 mi South 10.4 mph - N/A   Mostly Cloudy
5:43 AM 69.8 °F - 68.0 °F 94% 29.73 in 10.0 mi SSW 10.4 mph - N/A   Mostly Cloudy
5:48 AM 69.8 °F - 68.0 °F 94% 29.73 in 10.0 mi South 10.4 mph - N/A   Mostly Cloudy
5:58 AM 68.9 °F - 67.1 °F 94% 29.73 in 10.0 mi South 8.1 mph - N/A   Mostly Cloudy
6:13 AM 69.8 °F - 68.0 °F 94% 29.73 in 10.0 mi South 8.1 mph - N/A   Mostly Cloudy
6:18 AM 69.8 °F - 68.0 °F 94% 29.74 in 10.0 mi South 8.1 mph - N/A   Overcast
6:53 AM 69.8 °F - 68.0 °F 94% 29.74 in 10.0 mi South 8.1 mph - N/A   Overcast
6:58 AM 69.4 °F - 67.6 °F 94% 29.74 in 10.0 mi South 8.1 mph - N/A   Mostly Cloudy
6:59 AM 69.8 °F - 68.0 °F 94% 29.75 in 10.0 mi South 8.1 mph - N/A   Mostly Cloudy
7:04 AM 69.8 °F - 68.0 °F 94% 29.75 in 10.0 mi South 10.4 mph - N/A   Overcast
7:09 AM 69.8 °F - 68.0 °F 94% 29.75 in 10.0 mi South 10.4 mph - N/A   Overcast
7:14 AM 69.8 °F - 68.0 °F 94% 29.75 in 10.0 mi South 10.4 mph - N/A   Overcast
7:18 AM 69.8 °F - 68.0 °F 94% 29.75 in 10.0 mi South 10.4 mph - N/A   Overcast
7:38 AM 69.8 °F - 68.0 °F 94% 29.76 in 10.0 mi South 10.4 mph - N/A   Overcast
7:43 AM 69.8 °F - 68.0 °F 94% 29.76 in 10.0 mi South 10.4 mph - N/A   Overcast
7:53 AM 69.8 °F - 68.0 °F 94% 29.76 in 10.0 mi South 10.4 mph - N/A   Mostly Cloudy
7:58 AM 69.6 °F - 67.3 °F 92% 29.76 in 10.0 mi South 10.4 mph - N/A   Mostly Cloudy
8:08 AM 69.8 °F - 68.0 °F 94% 29.76 in 10.0 mi South 12.7 mph - N/A   Mostly Cloudy
8:18 AM 69.8 °F - 68.0 °F 94% 29.76 in 10.0 mi South 12.7 mph - N/A   Mostly Cloudy
8:23 AM 69.8 °F - 66.2 °F 88% 29.76 in 10.0 mi South 12.7 mph - N/A   Mostly Cloudy
8:28 AM 69.8 °F - 66.2 °F 88% 29.76 in 10.0 mi South 10.4 mph - N/A   Mostly Cloudy
8:33 AM 69.8 °F - 66.2 °F 88% 29.76 in 10.0 mi South 12.7 mph - N/A   Mostly Cloudy
8:52 AM 71.6 °F - 66.2 °F 83% 29.76 in 10.0 mi SSW 12.7 mph - N/A   Mostly Cloudy
8:55 AM 71.6 °F - 66.2 °F 83% 29.75 in 10.0 mi SSW 11.5 mph - N/A   Mostly Cloudy
9:58 AM 72.7 °F - 66.0 °F 80% 29.76 in 10.0 mi SSW 15.0 mph 23.0 mph N/A   Overcast
10:13 AM 73.4 °F - 66.2 °F 78% 29.76 in 10.0 mi SSW 16.1 mph - N/A   Overcast
10:18 AM 73.4 °F - 66.2 °F 78% 29.76 in 10.0 mi SSW 12.7 mph - N/A   Overcast
10:23 AM 73.4 °F - 66.2 °F 78% 29.76 in 10.0 mi SSW 13.8 mph - N/A   Mostly Cloudy
10:33 AM 73.4 °F - 66.2 °F 78% 29.76 in 10.0 mi SSW 16.1 mph - N/A   Mostly Cloudy
10:58 AM 74.5 °F - 65.5 °F 73% 29.75 in 10.0 mi South 12.7 mph - N/A   Mostly Cloudy
11:03 AM 75.2 °F - 64.4 °F 69% 29.75 in 10.0 mi SSW 15.0 mph - N/A   Overcast
11:08 AM 75.2 °F - 64.4 °F 69% 29.75 in 10.0 mi SSW 15.0 mph - N/A   Overcast
11:13 AM 75.2 °F - 64.4 °F 69% 29.75 in 10.0 mi SSW 15.0 mph - N/A   Overcast
11:23 AM 75.2 °F - 66.2 °F 73% 29.75 in 10.0 mi SSW 15.0 mph - N/A   Overcast
11:28 AM 75.2 °F - 66.2 °F 73% 29.75 in 10.0 mi South 12.7 mph - N/A   Overcast
11:58 AM 76.6 °F - 65.3 °F 68% 29.75 in 10.0 mi SSW 16.1 mph - N/A   Overcast
12:33 PM 77.0 °F - 64.4 °F 65% 29.74 in 10.0 mi SSW 16.1 mph - N/A   Mostly Cloudy
12:48 PM 78.8 °F - 64.4 °F 61% 29.73 in 10.0 mi South 18.4 mph - N/A   Overcast
12:58 PM 78.6 °F - 65.5 °F 64% 29.72 in 10.0 mi SSW 12.7 mph - N/A   Mostly Cloudy
1:14 PM 80.6 °F 82.3 °F 64.4 °F 58% 29.72 in 10.0 mi WSW 24.2 mph 32.2 mph N/A   Mostly Cloudy
1:18 PM 78.8 °F - 64.4 °F 61% 29.73 in 6.0 mi West 23.0 mph 34.5 mph N/A Rain Light Rain
1:21 PM 75.2 °F - 64.4 °F 69% 29.74 in 3.0 mi West 17.3 mph 34.5 mph N/A Rain Light Rain
1:26 PM 71.6 °F - 64.4 °F 78% 29.73 in 2.5 mi West 13.8 mph 34.5 mph N/A Rain Light Rain
1:31 PM 71.6 °F - 64.4 °F 78% 29.74 in 9.0 mi WSW 12.7 mph - N/A Rain Light Rain
1:34 PM 71.6 °F - 64.4 °F 78% 29.73 in 5.0 mi WSW 15.0 mph - N/A Rain Light Rain
1:52 PM 71.6 °F - 66.2 °F 83% 29.73 in 10.0 mi WSW 9.2 mph - N/A   Mostly Cloudy
1:58 PM 71.4 °F - 65.5 °F 81% 29.73 in 10.0 mi WSW 6.9 mph - 0.01 in   Mostly Cloudy
2:58 PM 77.7 °F - 64.2 °F 63% 29.72 in 10.0 mi WSW 11.5 mph - N/A   Scattered Clouds
3:58 PM 79.7 °F - 58.8 °F 49% 29.70 in 10.0 mi WSW 19.6 mph 25.3 mph N/A   Mostly Cloudy
4:58 PM 81.9 °F 81.4 °F 55.8 °F 41% 29.69 in 10.0 mi WSW 20.7 mph 26.5 mph N/A   Partly Cloudy
5:58 PM 81.9 °F 81.2 °F 54.5 °F 39% 29.69 in 10.0 mi SW 13.8 mph 21.9 mph N/A   Scattered Clouds
6:58 PM 80.4 °F - 50.7 °F 35% 29.71 in 10.0 mi West 12.7 mph - N/A   Clear
7:58 PM 75.2 °F - 47.3 °F 37% 29.73 in 10.0 mi WSW 11.5 mph - N/A   Clear
8:58 PM 71.2 °F - 39.2 °F 31% 29.75 in 10.0 mi WSW 8.1 mph - N/A   Clear
9:58 PM 67.5 °F - 39.9 °F 37% 29.78 in 10.0 mi West 9.2 mph - N/A   Clear
10:58 PM 65.7 °F - 38.5 °F 37% 29.80 in 10.0 mi West 11.5 mph - N/A   Clear
11:58 PM 64.2 °F - 35.6 °F 35% 29.83 in 10.0 mi West 10.4 mph - N/A   Clear